This demonstration page uses our WeatherBlox Daily Observations layout. Learn more.

Left ArrowRight Arrow

36.19886, -115.1175

Hourly Observations for August 19, 2016

Temp ( °F °C ) Dew Point ( °F °C ) Humidity (%) Winds ( mph kmh ) Pressure ( in mb ) Visibility ( mi km ) Precip ( " mm )
12:53 am 00:53 Clear 83 28.3 59 15 44 44 Calm 29.88 1012 10 16.0934 0 0
1:53 am 01:53 Clear 83 28.3 54 12.2 37 37 Calm 29.86 1011 10 16.0934 0 0
2:53 am 02:53 Clear 80 26.7 58 14.4 47 47 WNW 8 13 29.84 1011 10 16.0934 0 0
3:53 am 03:53 Clear 80 26.7 56 13.3 44 44 Calm 29.84 1011 10 16.0934 0 0
4:53 am 04:53 Clear 80 26.7 55 12.8 42 42 Calm 29.85 1011 10 16.0934 0 0
5:53 am 05:53 Clear 80 26.7 55 12.8 42 42 N 5 7 29.88 1012 10 16.0934 0 0
6:53 am 06:53 Sunny 80 26.7 53 11.7 39 39 N 7 11 29.89 1012 10 16.0934 0 0
7:53 am 07:53 Sunny 81 27.2 53 11.7 38 38 N 3 6 29.9 1013 10 16.0934 0 0
8:53 am 08:53 Sunny 83 28.3 54 12.2 37 37 N 3 6 29.91 1013 10 16.0934 0 0
9:53 am 09:53 Sunny 86 30 54 12.2 33 33 Calm 29.91 1013 10 16.0934 0 0
10:53 am 10:53 Sunny 87 30.6 52 11.1 30 30 ESE 7 11 29.92 1013 10 16.0934 0 0
11:53 am 11:53 Sunny 90 32.2 50 10 25 25 VRB 3 6 29.91 1013 10 16.0934 0 0
12:53 pm 12:53 Sunny 92 33.3 50 10 24 24 SW 9 15 29.89 1012 10 16.0934 0 0
1:53 pm 13:53 Sunny 96 35.6 46 7.8 18 18 W 7 11 29.84 1011 10 16.0934 0 0
2:53 pm 14:53 Sunny 98 36.7 40 4.4 13 13 SSW 8 13 29.82 1010 10 16.0934 0 0
3:53 pm 15:53 Sunny 98 36.7 38 3.3 12 12 S 8 13 29.79 1009 10 16.0934 0 0
4:53 pm 16:53 Sunny 99 37.2 37 2.8 12 12 SW 10 17 29.77 1008 10 16.0934 0 0
5:53 pm 17:53 Sunny 99 37.2 38 3.3 12 12 S 8 13 29.76 1008 10 16.0934 0 0
6:53 pm 18:53 Sunny 98 36.7 37 2.8 12 12 S 6 9 29.75 1008 10 16.0934 0 0
7:53 pm 19:53 Clear 95 35 38 3.3 14 14 SSE 6 9 29.76 1008 10 16.0934 0 0
8:53 pm 20:53 Clear 96 35.6 38 3.3 13 13 SSE 3 6 29.77 1008 10 16.0934 0 0
9:53 pm 21:53 Clear 90 32.2 41 5 18 18 WNW 6 9 29.78 1009 10 16.0934 0 0
10:53 pm 22:53 Clear 88 31.1 41 5 19 19 NW 6 9 29.79 1009 10 16.0934 0 0
11:53 pm 23:53 Clear 88 31.1 42 5.6 20 20 Calm 29.81 1010 10 16.0934 0 0

Powered by AerisWeather